Regional Weather Roundup
Issued by NWS

Home | Current Version | Previous Version | Text Only | Print | Product List | Glossary On
Versions: 1 2 3 4 5 6 7 8 9 10 11 12 13 14 15 16 17 18 19 20 21 22 23 24 25 26 27 28 29 30 31 32 33 34 35 36 37 38 39 40 41 42 43 44 45 46 47 48 49 50
000
ASUS44 KLUB 290601
RWRTX
WEST TEXAS WEATHER ROUNDUP
NATIONAL WEATHER SERVICE LUBBOCK TX
100 AM CDT SAT AUG 29 2015

NOTE: "FAIR" INDICATES FEW OR NO CLOUDS BELOW 12,000 FEET WITH NO
SIGNIFICANT WEATHER AND/OR OBSTRUCTIONS TO VISIBILITY.

TXZ004-006>008-010-012-014-016-OKZ002-290700-
TEXAS PANHANDLE/OKLAHOMA PANHANDLE

CITY           SKY/WX    TMP DP  RH WIND       PRES   REMARKS
AMARILLO       FAIR      70  60  70 S7        30.14S
BORGER         FAIR      75  63  66 S10       30.10S
CANADIAN       FAIR      71  63  74 SW6       30.04S
DALHART        MOCLDY    70  63  78 NW3       30.18R
DUMAS          FAIR      69  59  70 S8        30.15S
GUYMON         FAIR      67  60  78 N5        30.09S
$$

TXZ026-029-035-045-048-290700-
SOUTHERN PANHANDLE/SOUTH PLAINS/ROLLING PLAINS

CITY           SKY/WX    TMP DP  RH WIND       PRES   REMARKS
CHILDRESS      FAIR      77  68  73 SE8       30.00F
LUBBOCK        LGT RAIN  73  65  75 S5        30.09F
$$

TXZ052-054-060>062-072-078-127-140-154-169-290700-
PERMIAN BASIN/CONCHO VALLEY/BIG COUNTRY/EDWARDS PLATEAU

CITY           SKY/WX    TMP DP  RH WIND       PRES   REMARKS
ABILENE        FAIR      80  57  45 S15       30.00F
BIG SPRING     FAIR      78  55  44 N5        30.08R
JUNCTION       FAIR      78  56  46 CALM      30.04R
MIDLAND        CLOUDY    83  54  36 E6        30.06R
ODESSA         MOCLDY    82  53  36 E5        30.07R
SAN ANGELO     FAIR      78  53  41 S7        30.01R
WINK           MOCLDY    73  65  75 N14       30.07R
$$

TXZ055-058-074-075-080-082-290700-
FAR WEST/SOUTHWEST MOUNTAINS/TRANS PECOS

CITY           SKY/WX    TMP DP  RH WIND       PRES   REMARKS
ALPINE         FAIR      73  54  51 CALM      30.22F
DRYDEN           N/A     83  48  29 VRB3      29.99S
EL PASO        MOCLDY    75  61  61 CALM      30.12S
FORT STOCKTON  MOCLDY    79  56  45 SE8       30.07S
GUADALUPE PASS CLOUDY    67  54  63 W9        30.25R
MARFA          CLOUDY    72  54  53 N12       30.19S
$$

TXZ014-016-019-021>030-083-290700
TEXAS TECH WEST TEXAS MESONET/TEXAS PANHANDLE/NORTHERN SOUTH PLAINS

CITY           SKY/WX    TMP DP  RH WIND       PRES   REMARKS
ABERNATHY 5ENE   N/A     70  61  74 SW9       30.11F
AMARILLO 9NNE    N/A     71  61  71 S6        30.12R
AMARILLO 7SSE    N/A     67  62  84 SW3       30.15R
AMHERST 1NE      N/A     69  65  84 E1        30.16R
BOOTLEG 11WNW    N/A     68  59  73 S7        30.21S
CANADIAN 6E      N/A     74  60  61 CALM      30.03S
CAPROCK CYN SP   N/A     76  60  57 SW1       30.06S
CHILDRESS 2NNE   N/A     78  63  59 E7        30.00F
CLARENDON 2WSW   N/A     69  60  74 W6        30.09R
DIMMITT 2NE      N/A     69  60  73 SE2       30.16S
FLOYDADA 2NNE    N/A     71  59  64 N7        30.10R
FRIONA 2NE       N/A     68  61  79 SE7       30.19R
GOODLETT 3W      N/A     80  62  53 CALM      29.99S
HART 3N          N/A     67  62  86 E5        30.15S
HEREFORD 2NW     N/A     70  58  66 S3        30.17R
MCLEAN 1E        N/A     73  61  65 S5        30.06S
MEMPHIS 1NE      N/A     72  67  84 N3        30.01F
MULESHOE 2SSW    N/A     68  63  84 S8        30.16F
OLTON 6S         N/A     69  63  83 W2        30.14R
PALO DURO SP     N/A     70  60  70 S1        30.14S
PAMPA 2E         N/A     71  61  70 S9        30.10S
PLAINVIEW 1S     N/A     71  62  72 NW1       30.11S
SILVERTON 7ESE   N/A     70  64  80 SW5       30.09S
TULIA 2ENE       N/A     67  65  90 S5        30.13R
TURKEY 2WSW      N/A     78  61  56 NW3       30.04R
UMBARGER 3NNE    N/A     69  60  74 W3        30.17R
$$

TXZ033>036-039>041-045>048-290700
TEXAS TECH WEST TEXAS MESONET/SOUTH PLAINS

CITY           SKY/WX    TMP DP  RH WIND       PRES   REMARKS
AIKEN 3WSW       N/A     69  63  82 NE1       30.12S
ANDREWS 2NE      N/A     73  63  71 NW8       30.09R
ANTON 6SSW       N/A     69  64  83 CALM      30.13R
BROWNFIELD 2S    N/A     71  60  67 W2        30.11S
DENVR CTY 7WNW   N/A     69  58  67 NE5       30.15R
GAIL 2ESE        N/A     78  60  53 NW3       30.05S
LAMESA 2SE       N/A     77  59  54 NW3       30.10R
LEVELLAND 4S     N/A     70  61  72 NW1       30.14R
LUBBOCK 3WNW     N/A     75  57  53 NE3       30.11S
MORTON 1ENE      N/A     69  64  84 NE3       30.18R
ODONNELL 1N      N/A     76  58  55 NW3       30.10R
PLAINS 3N        N/A     71  58  63 SW1       30.16S
RALLS 1SE        N/A     73  59  61 E2        30.09S
REESE CENTER     N/A     74  58  58 E7        30.12S
SEAGRAVES 1SW    N/A     71  62  72 N3        30.14R
SEMINOLE 2NNE    N/A     70  62  75 NW8       30.12R
SLATON 2NE       N/A     74  59  61 W9        30.09S
SNYDER 3E        N/A     81  44  27 W6        30.03S
SUNDOWN 8SW      N/A     69  63  83 W7        30.15R
TAHOKA 3NNE      N/A     74  60  60 NW9       30.08F
WOLFFORTH 6SSW   N/A     73  61  66 N1        30.12F
$$

TXZ031-032-036>038-042>044-290700-
TEXAS TECH WEST TEXAS MESONET/ROLLING PLAINS

CITY           SKY/WX    TMP DP  RH WIND       PRES   REMARKS
ASPERMONT 3NE    N/A     81  56  42 SE5       29.98S
FLUVANNA 3WNW    N/A     81  52  36 N9        30.05S
GRAHAM 5SSW      N/A     78  56  46 N12       30.06S
GUTHRIE 10WSW    N/A     82  53  36 E7        30.00F
HASKELL 1NW      N/A     82  58  44 SE7       29.97F
JAYTON 1SSE      N/A     82  50  32 SE7       30.00F
KNOX CITY 3NW    N/A     83  59  44 SE12      29.97S
LK A HENRY 1NW   N/A     78  58  50 NW6       30.03S
NORTHFIELD 1S    N/A     83  60  46 SE9       30.00S
ODELL 4ENE       N/A     78  65  64 SE7       29.98F
PADUCAH 10SW     N/A     78  58  50 E7        30.01F
POST 1NE         N/A     78  57  49 N6        30.05F
RRING SPRGS 3N   N/A     76  61  61 N2        30.04F
SEYMOUR 3NW      N/A     84  58  41 SE13      29.95S
SPUR 1W          N/A     79  58  47 N6        30.02S
WEINERT 2NNE     N/A     83  61  47 SE12      29.98S
WHITE RVR 6NE    N/A     76  57  50 NW7       30.05F
$$

TXZ052-054-060>062-072-078-127-140-154-169-290700-
TEXAS TECH WEST TEXAS MESONET/PERMIAN BASIN/
CONCHO VALLEY/BIG COUNTRY/EDWARDS PLATEAU

CITY           SKY/WX    TMP DP  RH WIND       PRES   REMARKS
JUNCTION 1SSW    N/A     77  58  50 S6        30.04S
MERTZON 3NNE     N/A     78  51  38 S8        30.04S
SAN ANGELO 7NW   N/A     74  44  33 CALM      30.02R
STRLNG CT 4WSW   N/A     82  46  28 S12       30.04S
ST LAWRNCE 5SW   N/A     75  43  31 S6        30.06S
SWEETWATR 11SW   N/A     80  51  35 S8        30.05R
WALL 1E          N/A     82  50  32 S12       30.01S
$$

TXZ055-058-074-075-080-082-290700-
TEXAS TECH WEST TEXAS MESONET/FAR WEST/SOUTHWEST MOUNTAINS/TRANS PECOS

CITY           SKY/WX    TMP DP  RH WIND       PRES   REMARKS
PRSMN GAP BBNP   N/A     84  43  23 NE12      30.03R
$$



USA.gov is the U.S. government's official web portal to all federal, state and local government web resources and services.